Weather History for KLCH - September, 2013

Change the Weather History Date:

Monday, September 30, 2013

  Actual Average Record
Temperature  
Mean Temperature 76 °F 75 °F  
Max Temperature 80 °F 85 °F 97 °F (1929)
Min Temperature 72 °F 65 °F 45 °F (1909)
Degree Days  
Heating Degree Days 0 0  
Month to date heating degree days 0 0  
Since 1 July heating degree days 0 1  
Cooling Degree Days 11 10  
Month to date cooling degree days 506 411  
Year to date cooling degree days 2711 2540  
Growing Degree Days 26 (Base 50)    
Moisture  
Dew Point 73 °F    
Average Humidity 94    
Maximum Humidity 100    
Minimum Humidity 87    
Precipitation  
Precipitation 1.25 in 0.14 in 1.62 in (1934)
Month to date precipitation 9.69 5.26  
Year to date precipitation 48.69 43.48  
Snow  
Snow 0.00 in 0.00 in 0.00 in ()
Month to date snowfall 0.0 0.0  
Since 1 July snowfall 0.0 0.0  
Since 1 September snowfall 0.0 0.0  
Snow Depth 0.00 in    
Sea Level Pressure  
Sea Level Pressure 29.91 in    
Wind  
Wind Speed 5 mph (ESE)    
Max Wind Speed 16 mph    
Max Gust Speed 18 mph    
Visibility 8 miles    
Events Rain , Thunderstorm    
T = Trace of Precipitation, MM = Missing Value Source: NWS Daily Summary

Daily Weather History Graph

Daily Weather History Graph

Search for Another Location

Airport or City:

Trip Planner

Search our weather history database for the weather conditions in past years. The results will help you decide how hot, cold, wet, or windy it might be!

Date:

Astronomy

Sep. 30, 2013 Rise Set
Actual Time 7:05 AM CDT 6:59 PM CDT
Civil Twilight 6:41 AM CDT 7:23 PM CDT
Nautical Twilight 6:14 AM CDT 7:50 PM CDT
Astronomical Twilight 5:46 AM CDT 8:18 PM CDT
Moon 2:59 AM CDT (9/30) 4:16 PM CDT (9/30)
Length of Visible Light 12h 41m
Length of Day
11h 53m
Waning Crescent, 19% of the Moon is Illuminated
Sep 30
Waning Crescent
Oct 4
New
Oct 11
First Quarter
Oct 18
Full
Oct 26
Last Quarter

Hourly Weather History & Observations

Time (CDT) Temp. Dew Point Humidity Pressure Visibility Wind Dir Wind Speed Gust Speed Precip Events Conditions
12:53 AM 73.0 °F 72.0 °F 96% 29.94 in 9.0 mi Calm Calm - 0.00 in   Mostly Cloudy
1:53 AM 75.0 °F 73.0 °F 94% 29.94 in 10.0 mi Calm Calm - N/A   Overcast
2:53 AM 73.9 °F 73.0 °F 97% 29.91 in 10.0 mi ESE 3.5 mph - N/A   Mostly Cloudy
3:53 AM 75.0 °F 73.0 °F 94% 29.91 in 10.0 mi Calm Calm - N/A   Overcast
4:53 AM 73.9 °F 73.0 °F 97% 29.91 in 8.0 mi Calm Calm - N/A   Overcast
5:53 AM 73.9 °F 73.0 °F 97% 29.91 in 10.0 mi ESE 3.5 mph - N/A   Overcast
6:53 AM 73.9 °F 73.0 °F 97% 29.91 in 9.0 mi SE 3.5 mph - N/A   Overcast
7:53 AM 75.0 °F 73.0 °F 94% 29.91 in 10.0 mi ESE 3.5 mph - N/A   Overcast
8:39 AM 75.2 °F 73.4 °F 94% 29.91 in 2.0 mi South 12.7 mph 18.4 mph 0.00 in Rain Light Rain
8:46 AM 75.2 °F 71.6 °F 89% 29.91 in 1.2 mi SSE 10.4 mph - 0.18 in Rain Light Rain
8:50 AM 75.2 °F 71.6 °F 89% 29.91 in 3.0 mi Variable 4.6 mph - 0.19 in Rain Light Rain
8:53 AM 73.9 °F 72.0 °F 93% 29.94 in 1.5 mi Calm Calm - 0.19 in Rain Heavy Rain
9:05 AM 75.2 °F 71.6 °F 89% 29.91 in 3.0 mi SE 6.9 mph - 0.14 in Rain Light Rain
9:16 AM 75.2 °F 73.4 °F 94% 29.92 in 10.0 mi SE 9.2 mph - 0.15 in   Overcast
9:53 AM 77.0 °F 72.0 °F 84% 29.95 in 10.0 mi SE 6.9 mph - 0.15 in   Mostly Cloudy
10:53 AM 77.0 °F 73.9 °F 90% 29.93 in 9.0 mi SE 11.5 mph - 0.00 in Rain Light Rain
11:22 AM 78.8 °F 73.4 °F 83% 29.92 in 10.0 mi SE 9.2 mph - 0.00 in Thunderstorm Overcast
11:37 AM 78.8 °F 73.4 °F 83% 29.92 in 10.0 mi South 5.8 mph - 0.00 in Rain Light Rain
11:49 AM 78.8 °F 73.4 °F 83% 29.92 in 10.0 mi SSE 5.8 mph - 0.00 in Rain , Thunderstorm Light Rain
11:53 AM 78.1 °F 73.9 °F 87% 29.94 in 10.0 mi SSE 3.5 mph - 0.00 in Rain , Thunderstorm Light Rain
12:16 PM 78.8 °F 73.4 °F 83% 29.92 in 10.0 mi Calm Calm - 0.00 in Rain , Thunderstorm Light Rain
12:53 PM 75.9 °F 73.9 °F 94% 29.94 in 6.0 mi North 8.1 mph - 0.06 in Rain , Thunderstorm Light Thunderstorms and Rain
1:10 PM 75.2 °F 73.4 °F 94% 29.92 in 1.8 mi North 10.4 mph - 0.05 in Rain , Thunderstorm Heavy Thunderstorms and Rain
1:19 PM 73.4 °F 71.6 °F 94% 29.92 in 1.5 mi WNW 6.9 mph - 0.27 in Rain , Thunderstorm Heavy Thunderstorms and Rain
1:22 PM 73.4 °F 69.8 °F 88% 29.91 in 3.0 mi NW 8.1 mph - 0.29 in Rain , Thunderstorm Light Thunderstorms and Rain
1:53 PM 75.9 °F 72.0 °F 87% 29.93 in 10.0 mi ENE 12.7 mph - 0.29 in Rain , Thunderstorm Light Rain
2:23 PM 75.2 °F 71.6 °F 89% 29.89 in 10.0 mi NE 8.1 mph - 0.00 in Rain , Thunderstorm Light Rain
2:48 PM 73.4 °F 69.8 °F 88% 29.88 in 1.8 mi South 4.6 mph - 0.06 in Rain , Thunderstorm Heavy Thunderstorms and Rain
2:53 PM 72.0 °F 71.1 °F 97% 29.89 in 5.0 mi South 3.5 mph - 0.12 in Rain , Thunderstorm Heavy Thunderstorms and Rain
3:09 PM 73.4 °F 71.6 °F 94% 29.86 in 5.0 mi Variable 5.8 mph - 0.14 in Rain , Thunderstorm Heavy Thunderstorms and Rain
3:30 PM 75.2 °F 71.6 °F 89% 29.87 in 10.0 mi SSE 12.7 mph 16.1 mph 0.16 in   Scattered Clouds
3:40 PM 75.2 °F 71.6 °F 89% 29.86 in 10.0 mi SSE 13.8 mph 18.4 mph 0.16 in Thunderstorm Clear
3:53 PM 73.9 °F 71.1 °F 91% 29.87 in 10.0 mi South 8.1 mph - 0.16 in   Clear
4:53 PM 75.9 °F 73.0 °F 91% 29.87 in 10.0 mi West 4.6 mph - N/A   Scattered Clouds
5:53 PM 75.9 °F 73.9 °F 94% 29.88 in 10.0 mi North 8.1 mph - 0.00 in   Mostly Cloudy
6:01 PM 78.8 °F 73.4 °F 83% 29.87 in 10.0 mi West 8.1 mph - N/A   Mostly Cloudy
6:50 PM 75.2 °F 73.4 °F 94% 29.86 in 2.5 mi ENE 6.9 mph - 0.06 in Rain Heavy Rain
6:53 PM 75.9 °F 75.0 °F 97% 29.89 in 10.0 mi ENE 8.1 mph - 0.13 in Rain Heavy Rain
7:04 PM 75.2 °F 73.4 °F 94% 29.88 in 10.0 mi NNW 6.9 mph - 0.11 in Rain Light Rain
7:09 PM 75.2 °F 73.4 °F 94% 29.88 in 10.0 mi North 8.1 mph - 0.11 in Rain Light Rain
7:16 PM 75.2 °F 73.4 °F 94% 29.89 in 10.0 mi NE 8.1 mph - 0.11 in Rain Light Rain
7:41 PM 75.2 °F 73.4 °F 94% 29.88 in 10.0 mi East 4.6 mph - 0.15 in Rain , Thunderstorm Light Thunderstorms and Rain
7:53 PM 73.9 °F 71.1 °F 91% 29.91 in 10.0 mi East 4.6 mph - 0.15 in   Overcast
8:53 PM 73.0 °F 72.0 °F 96% 29.91 in 10.0 mi Calm Calm - N/A   Mostly Cloudy
9:53 PM 73.9 °F 73.0 °F 97% 29.93 in 10.0 mi ESE 4.6 mph - N/A   Clear
10:53 PM 73.9 °F 73.0 °F 97% 29.93 in 10.0 mi ESE 3.5 mph - N/A   Clear
11:53 PM 73.9 °F 72.0 °F 93% 29.93 in 10.0 mi Calm Calm - N/A   Clear